This is the latest recevied weather packets stored in our database for station/object KE7JVX-3. If no packets are shown the sender has not sent any weather packets the latest 10 day(s).
| Time | Temp. | Humidity | Pressure | Rain* | Wind** | Luminosity | Snow |
|---|---|---|---|---|---|---|---|
| 1777753468 | 12.78° C | 27% | 1013.8 hPa | 0 mm | - | - | - |
| 1777752867 | 12.22° C | 29% | 1013.8 hPa | 0 mm | - | - | - |
| 1777752267 | 11.67° C | 28% | 1013.8 hPa | 0 mm | - | - | - |
| 1777751667 | 11.67° C | 30% | 1013.8 hPa | 0 mm | - | - | - |
| 1777751068 | 11.11° C | 28% | 1013.7 hPa | 0 mm | - | - | - |
| 1777750467 | 11.11° C | 33% | 1013.9 hPa | 0 mm | - | - | - |
| 1777749867 | 10.56° C | 34% | 1013.9 hPa | 0 mm | - | - | - |
| 1777749268 | 11.11° C | 35% | 1013.9 hPa | 0 mm | - | - | - |
| 1777748667 | 11.11° C | 35% | 1014 hPa | 0 mm | - | - | - |
| 1777748067 | 11.11° C | 35% | 1014.1 hPa | 0 mm | - | - | - |
| 1777747467 | 11.11° C | 36% | 1014.1 hPa | 0 mm | - | - | - |
| 1777746867 | 10° C | 39% | 1014.2 hPa | 0 mm | - | - | - |
| 1777746269 | 9.44° C | 43% | 1014.2 hPa | 0 mm | - | - | - |
| 1777745667 | 9.44° C | 43% | 1014.3 hPa | 0 mm | - | - | - |
| 1777745067 | 9.44° C | 45% | 1014.3 hPa | 0 mm | - | - | - |
| 1777744467 | 8.33° C | 47% | 1014.2 hPa | 0 mm | - | - | - |
| 1777743867 | 8.33° C | 47% | 1014.2 hPa | 0 mm | - | - | - |
| 1777743267 | 8.33° C | 47% | 1014.2 hPa | 0 mm | - | - | - |
| 1777742667 | 8.33° C | 51% | 1014.2 hPa | 0 mm | - | - | - |
| 1777742067 | 7.78° C | 51% | 1014.1 hPa | 0 mm | - | - | - |
| 1777740867 | 7.22° C | 55% | 1013.9 hPa | 0 mm | - | - | - |
| 1777740268 | 6.67° C | 57% | 1013.9 hPa | 0 mm | - | - | - |
| 1777739667 | 6.67° C | 56% | 1013.8 hPa | 0 mm | - | - | - |
| 1777739070 | 6.67° C | 60% | 1013.7 hPa | 0 mm | - | - | - |
| 1777738467 | 6.11° C | 60% | 1013.8 hPa | 0 mm | - | - | - |
* Rain latest hour (hover to see other rain measurements)
** Current wind speed in m/s (hover to see current wind gust speed)